Regional Weather Roundup
Issued by NWS

Home | Current Version | Previous Version | Text Only | Print | Product List | Glossary Off
Versions: 1 2 3 4 5 6 7 8 9 10 11 12 13 14 15 16 17 18 19 20 21 22 23 24 25 26 27 28 29 30 31 32 33 34 35 36 37 38 39 40 41 42 43 44 45 46 47 48 49

000
ASUS43 KDMX 220607
RWRIA

WEATHER ROUNDUP FOR IOWA
NATIONAL WEATHER SERVICE DES MOINES IA
1200 AM CST MON DEC 22 2014

NOTE: "FAIR" INDICATES FEW OR NO CLOUDS BELOW 12,000 FEET WITH NO
SIGNIFICANT WEATHER AND/OR OBSTRUCTIONS TO VISIBILITY.

* - THESE STATIONS ARE NOT NWS STATIONS...THUS NOT UNDER NWS
QUALITY CONTROL.  THEY ALSO DO NOT REPORT WEATHER SUCH
AS PRECIPITATION OR FOG.

IAZ001>003-012>014-020>022-031>034-043>046-220700-
   NORTHWEST IOWA

CITY           SKY/WX    TMP DP  RH WIND       PRES   REMARKS
CARROLL *      CLOUDY    41  41 100 S17       29.68S FOG
CHEROKEE *     CLOUDY    40  40 100 S14       29.62F FOG     WCI  32
DENISON *      CLOUDY    41  41 100 S14G20    29.63F FOG
LE MARS *      CLOUDY    41  41 100 S17G25    29.59S
ORANGE CITY *  CLOUDY    41  39  93 S13G18    29.59S FOG
SHELDON *      CLOUDY    39  39 100 S20       29.58F FOG     WCI  30
SIOUX CITY     CLOUDY    42  40  92 SE13      29.60F FOG
6HR MIN TEMP:  41; 6HR MAX TEMP:  42; 6HR PCP: TRACE;

SPENCER        CLOUDY    40  38  93 S17       29.63S FOG     WCI  31
6HR MIN TEMP:  38; 6HR MAX TEMP:  40;

STORM LAKE *   CLOUDY    39  39 100 S20       29.64F FOG     WCI  30
$$

IAZ055>058-069>071-079>083-090>094-220700-
   SOUTHWEST IOWA

CITY           SKY/WX    TMP DP  RH WIND       PRES   REMARKS
ATLANTIC *     CLOUDY    43  43 100 S15       29.67F FOG
AUDUBON *      DRIZZLE   41  37  87 S12G17    29.68F
CLARINDA *     CLOUDY    43  43 100 S14       29.71F FOG
COUNCIL BLFS * CLOUDY    43  43 100 S17G24    29.63F FOG
CRESTON *      CLOUDY    41  41 100 S18       29.72F FOG
HARLAN  *      CLOUDY    41  41 100 S15       29.69F FOG
LAMONI         CLOUDY    40  38  93 S12G20    29.75F WCI  33
6HR MIN TEMP:  40; 6HR MAX TEMP:  42; 6HR PCP:  0.01;

RED OAK *      CLOUDY    43  43 100 S15       29.68F FOG
SHENANDOAH *   CLOUDY    43  43 100 S20G26    29.68F FOG
$$

IAZ047>049-059>061-072>074-084-220700-
   CENTRAL IOWA

CITY           SKY/WX    TMP DP  RH WIND       PRES   REMARKS
AMES           CLOUDY    41  38  89 S16       29.75S
6HR MIN TEMP:  40; 6HR MAX TEMP:  41;

ANKENY *       CLOUDY    43  39  87 S14       29.76S
CHARITON *     CLOUDY    41  39  93 S14G22    29.77S
DES MOINES     LGT RAIN  43  38  82 S18G25    29.76S
6HR MIN TEMP:  42; 6HR MAX TEMP:  44; 6HR PCP: TRACE;

GRINNELL*      CLOUDY    39  37  93 SE15      29.79F WCI  31
KNOXVILLE *    CLOUDY    41  37  87 S14G21    29.77S
MARSHALLTOWN   CLOUDY    39  38  96 SE13      29.77S WCI  31
6HR MIN TEMP:  38; 6HR MAX TEMP:  40; 6HR PCP: TRACE;

PELLA *        CLOUDY    41  38  90 S12G17    29.81S
PERRY *        CLOUDY    41  41 100 S13       29.72S
$$

IAZ004>006-015-016-023>025-035-036-220700-
   NORTH CENTRAL IOWA

CITY           SKY/WX    TMP DP  RH WIND       PRES   REMARKS
ALGONA *       CLOUDY    39  39 100 S18       29.68F FOG     WCI  30
CLARION *      CLOUDY    39  39 100 S18       29.71F FOG     WCI  30
ESTHERVILLE    CLOUDY    37  37 100 S20       29.64F FOG     WCI  27
6HR MIN TEMP:  36; 6HR MAX TEMP:  37;

FORT DODGE *   CLOUDY    39  37  93 SE8G21    29.71S WCI  34
MASON CITY     LGT RAIN  37  37 100 S15       29.74F FOG     WCI  28
6HR MIN TEMP:  37; 6HR MAX TEMP:  38; 6HR PCP: TRACE;

FOREST CITY *  CLOUDY    37  36  93 SE15      29.72S FOG     WCI  28
IOWA FALLS *   LGT RAIN  39  37  95 SE16      29.75S WCI  30
$$

IAZ007>011-017>019-026>030-037>042-050>054-066-220700-
   NORTHEAST IOWA

CITY           SKY/WX    TMP DP  RH WIND       PRES   REMARKS
CEDAR RAPIDS   CLOUDY    36  35  96 SE14      29.83F FOG     WCI  27
6HR MIN TEMP:  36; 6HR MAX TEMP:  39; 6HR PCP: TRACE;

CHARLES CITY * LGT RAIN  37  37 100 SE14G23   29.78S WCI  29
CLINTON *      CLOUDY    36  30  80 SE14      29.93F WCI  27
DECORAH *      CLOUDY    36  36 100 SE12G20   29.80F FOG     WCI  27
DUBUQUE        CLOUDY    33  30  88 S17       29.88F FOG     WCI  22
6HR MIN TEMP:  33; 6HR MAX TEMP:  35; 6HR PCP: TRACE;

MONTICELLO *   CLOUDY    36  36 100 SE10      29.87S WCI  28
OELWEIN *      CLOUDY    36  36 100 SE17      29.82F FOG     WCI  25
WATERLOO       LGT RAIN  37  35  92 S15       29.80F WCI  28
6HR MIN TEMP:  37; 6HR MAX TEMP:  38; 6HR PCP: TRACE;

$$

IAZ064-065-067-068-078-220700-
   EAST CENTRAL IOWA

CITY           SKY/WX    TMP DP  RH WIND       PRES   REMARKS
DAVENPORT      CLOUDY    35  29  78 SE14      29.91F WCI  26
6HR MIN TEMP:  35; 6HR MAX TEMP:  36; 6HR PCP: TRACE;

IOWA CITY      CLOUDY    37  34  89 SE10      29.88F WCI  30
6HR MIN TEMP:  37; 6HR MAX TEMP:  40;

MT. PLEASANT * CLOUDY    37  33  84 SE14      29.87F WCI  29
MUSCATINE *    CLOUDY    39  32  75 SE10      29.89F WCI  32
QUAD CITIES    CLOUDY    36  31  82 SE15      29.91F WCI  27
6HR MIN TEMP:  36; 6HR MAX TEMP:  37; 6HR PCP: TRACE;

$$

IAZ062-063-075>077-085>089-095>099-220700-
   SOUTHEAST IOWA

CITY           SKY/WX    TMP DP  RH WIND       PRES   REMARKS
BURLINGTON     LGT RAIN  39  32  76 SE9       29.89F WCI  33
6HR MIN TEMP:  38; 6HR MAX TEMP:  40; 6HR PCP: TRACE;

FAIRFIELD *    CLOUDY    39  36  87 SE16      29.84F WCI  30
FORT MADISON * CLOUDY    39  36  87 S9        29.89F WCI  33
KEOKUK *       CLOUDY    41  34  75 SE10      29.87F
OSKALOOSA *    CLOUDY    39  37  92 S14       29.82S WCI  31
CENTERVILLE *  CLOUDY    39  39 100 SE14      29.81F WCI  31
OTTUMWA        CLOUDY    40  37  89 S15       29.81F WCI  32
6HR MIN TEMP:  40; 6HR MAX TEMP:  41; 6HR PCP:  0.02;

WASHINGTON *   CLOUDY    39  39 100 SE14      29.85F WCI  31
$$

ABBREVIATIONS USED IN REMARKS
   TC - TEMPERATURES IN CELSIUS
  WCI - WIND CHILL INDEX
   HX - HEAT INDEX
  VSB - VISIBILITY
$$




USA.gov is the U.S. government's official web portal to all federal, state and local government web resources and services.